| time (UTC) | temp F | wind direction | speed MPH | gust MPH | rain 1hr in | rain 24hr in | rain mn in | humidity % | barometer mb |
| 20260510204444 | 89 | 119 | 8.0 | 13.0 | 0.00 | 0.10 | 0.10 | 60 | 1017.6 |
| 20260510203940 | 90 | 120 | 9.0 | 13.0 | 0.00 | 0.10 | 0.10 | 58 | 1017.3 |
| 20260510203438 | 91 | 118 | 8.0 | 13.0 | 0.00 | 0.10 | 0.10 | 57 | 1017.6 |
| 20260510202937 | 90 | 134 | 11.0 | 12.0 | 0.00 | 0.10 | 0.10 | 58 | 1017.5 |
| 20260510202433 | 91 | 105 | 6.0 | 14.0 | 0.00 | 0.10 | 0.10 | 57 | 1017.3 |
| 20260510201930 | 91 | 126 | 9.0 | 13.0 | 0.00 | 0.10 | 0.10 | 57 | 1017.3 |
| 20260510201428 | 91 | 138 | 11.0 | 13.0 | 0.00 | 0.10 | 0.10 | 56 | 1017.2 |
| 20260510200924 | 91 | 117 | 7.0 | 12.0 | 0.00 | 0.10 | 0.10 | 56 | 1017.2 |
| 20260510200424 | 92 | 131 | 11.0 | 15.0 | 0.00 | 0.10 | 0.10 | 55 | 1017.2 |
| 20260510195918 | 92 | 138 | 10.0 | 15.0 | 0.00 | 0.10 | 0.10 | 53 | 1017.3 |
| 20260510195415 | 93 | 100 | 6.0 | 11.0 | 0.00 | 0.10 | 0.10 | 53 | 1017.4 |
| 20260510194910 | 93 | 118 | 8.0 | 12.0 | 0.00 | 0.10 | 0.10 | 53 | 1017.5 |
| 20260510194406 | 93 | 111 | 6.0 | 14.0 | 0.00 | 0.10 | 0.10 | 54 | 1017.6 |
| 20260510193902 | 93 | 130 | 11.0 | 14.0 | 0.00 | 0.10 | 0.10 | 53 | 1017.1 |
| 20260510193357 | 93 | 148 | 13.0 | 15.0 | 0.00 | 0.10 | 0.10 | 55 | 1017.4 |
| 20260510192853 | 93 | 109 | 8.0 | 14.0 | 0.00 | 0.10 | 0.10 | 55 | 1017.4 |
| 20260510192348 | 93 | 133 | 10.0 | 15.0 | 0.00 | 0.10 | 0.10 | 54 | 1017.4 |
| 20260510191844 | 93 | 128 | 10.0 | 13.0 | 0.00 | 0.10 | 0.10 | 56 | 1017.2 |
| 20260510191340 | 93 | 158 | 14.0 | 15.0 | 0.00 | 0.10 | 0.10 | 55 | 1017.4 |
| 20260510190839 | 94 | 123 | 10.0 | 16.0 | 0.00 | 0.10 | 0.10 | 54 | 1017.1 |
| 20260510190336 | 92 | 132 | 10.0 | 14.0 | 0.00 | 0.10 | 0.10 | 58 | 1017.3 |
| 20260510185831 | 93 | 141 | 11.0 | 15.0 | 0.00 | 0.10 | 0.10 | 57 | 1017.2 |
| 20260510185330 | 93 | 131 | 12.0 | 15.0 | 0.00 | 0.10 | 0.10 | 56 | 1017.4 |
| 20260510184822 | 93 | 123 | 9.0 | 15.0 | 0.00 | 0.10 | 0.10 | 57 | 1017.3 |
| 20260510184319 | 92 | 146 | 14.0 | 15.0 | 0.00 | 0.10 | 0.10 | 57 | 1017.5 |
| 20260510183819 | 93 | 151 | 13.0 | 15.0 | 0.00 | 0.10 | 0.10 | 56 | 1017.6 |
| 20260510183314 | 93 | 137 | 13.0 | 16.0 | 0.00 | 0.10 | 0.10 | 57 | 1017.5 |
| 20260510182810 | 91 | 132 | 11.0 | 15.0 | 0.00 | 0.10 | 0.10 | 58 | 1017.7 |
| 20260510182306 | 91 | 143 | 12.0 | 15.0 | 0.00 | 0.10 | 0.10 | 58 | 1017.8 |
| 20260510181803 | 92 | 143 | 12.0 | 15.0 | 0.00 | 0.10 | 0.10 | 58 | 1017.6 |
| 20260510181300 | 93 | 129 | 13.0 | 17.0 | 0.00 | 0.10 | 0.10 | 56 | 1017.7 |
| 20260510180756 | 93 | 134 | 13.0 | 15.0 | 0.00 | 0.10 | 0.10 | 56 | 1017.7 |
| 20260510180253 | 93 | 150 | 12.0 | 17.0 | 0.00 | 0.10 | 0.10 | 58 | 1018.0 |
| 20260510175751 | 92 | 134 | 12.0 | 15.0 | 0.00 | 0.10 | 0.10 | 58 | 1018.2 |
| 20260510175246 | 91 | 147 | 13.0 | 17.0 | 0.00 | 0.10 | 0.10 | 59 | 1017.9 |
| 20260510174743 | 91 | 146 | 13.0 | 15.0 | 0.00 | 0.10 | 0.10 | 59 | 1018.1 |
| 20260510174240 | 91 | 142 | 13.0 | 16.0 | 0.00 | 0.10 | 0.10 | 60 | 1018.0 |
| 20260510173736 | 91 | 128 | 10.0 | 18.0 | 0.00 | 0.10 | 0.10 | 59 | 1018.2 |
| 20260510173232 | 92 | 135 | 11.0 | 15.0 | 0.00 | 0.10 | 0.10 | 59 | 1018.3 |
| 20260510172727 | 92 | 122 | 9.0 | 14.0 | 0.00 | 0.10 | 0.10 | 58 | 1018.5 |
| 20260510172224 | 91 | 147 | 12.0 | 15.0 | 0.00 | 0.10 | 0.10 | 59 | 1018.4 |
| 20260510171721 | 92 | 131 | 11.0 | 13.0 | 0.00 | 0.10 | 0.10 | 57 | 1018.4 |
| 20260510171218 | 91 | 133 | 10.0 | 15.0 | 0.00 | 0.10 | 0.10 | 59 | 1018.5 |
| 20260510170715 | 92 | 137 | 10.0 | 16.0 | 0.00 | 0.10 | 0.10 | 58 | 1018.6 |
| 20260510170211 | 91 | 120 | 9.0 | 12.0 | 0.00 | 0.10 | 0.10 | 58 | 1018.7 |
| 20260510165707 | 93 | 127 | 11.0 | 14.0 | 0.00 | 0.10 | 0.10 | 56 | 1018.7 |
| 20260510165203 | 92 | 124 | 8.0 | 14.0 | 0.00 | 0.10 | 0.10 | 56 | 1018.7 |
| 20260510164701 | 91 | 130 | 11.0 | 14.0 | 0.00 | 0.10 | 0.10 | 61 | 1018.7 |
| 20260510164158 | 91 | 125 | 11.0 | 13.0 | 0.00 | 0.10 | 0.10 | 61 | 1018.6 |
| 20260510163658 | 91 | 153 | 13.0 | 15.0 | 0.00 | 0.10 | 0.10 | 62 | 1018.6 |
| 20260510163154 | 90 | 143 | 12.0 | 17.0 | 0.00 | 0.10 | 0.10 | 61 | 1018.6 |
| 20260510162654 | 89 | 131 | 9.0 | 14.0 | 0.00 | 0.10 | 0.10 | 62 | 1018.9 |
| 20260510162151 | 89 | 120 | 8.0 | 15.0 | 0.00 | 0.10 | 0.10 | 64 | 1019.0 |
| 20260510161647 | 89 | 148 | 13.0 | 14.0 | 0.00 | 0.10 | 0.10 | 64 | 1018.8 |
| 20260510161144 | 90 | 145 | 13.0 | 16.0 | 0.00 | 0.10 | 0.10 | 63 | 1019.0 |
| 20260510160641 | 89 | 151 | 13.0 | 15.0 | 0.00 | 0.10 | 0.10 | 64 | 1019.1 |
| 20260510160136 | 89 | 130 | 11.0 | 14.0 | 0.00 | 0.10 | 0.10 | 61 | 1019.2 |
| 20260510155632 | 89 | 143 | 13.0 | 15.0 | 0.00 | 0.10 | 0.10 | 63 | 1019.0 |
| 20260510155128 | 90 | 150 | 14.0 | 16.0 | 0.00 | 0.10 | 0.10 | 62 | 1019.0 |
| 20260510154624 | 90 | 146 | 14.0 | 15.0 | 0.00 | 0.10 | 0.10 | 62 | 1018.9 |
| 20260510154119 | 89 | 133 | 11.0 | 14.0 | 0.00 | 0.10 | 0.10 | 62 | 1018.9 |
| 20260510153615 | 88 | 136 | 13.0 | 16.0 | 0.00 | 0.10 | 0.10 | 65 | 1018.9 |
| 20260510153112 | 88 | 143 | 12.0 | 17.0 | 0.00 | 0.10 | 0.10 | 65 | 1018.8 |
| 20260510152608 | 88 | 137 | 11.0 | 14.0 | 0.00 | 0.10 | 0.10 | 65 | 1018.8 |
| 20260510152105 | 88 | 147 | 17.0 | 18.0 | 0.00 | 0.10 | 0.10 | 65 | 1018.9 |
| 20260510151601 | 87 | 159 | 13.0 | 15.0 | 0.00 | 0.10 | 0.10 | 66 | 1019.0 |
| 20260510151100 | 87 | 155 | 15.0 | 16.0 | 0.00 | 0.10 | 0.10 | 67 | 1019.0 |
| 20260510150554 | 87 | 133 | 14.0 | 17.0 | 0.00 | 0.10 | 0.10 | 66 | 1018.9 |
| 20260510150050 | 86 | 145 | 14.0 | 16.0 | 0.00 | 0.10 | 0.10 | 69 | 1019.1 |
| 20260510145547 | 86 | 135 | 12.0 | 16.0 | 0.00 | 0.10 | 0.10 | 70 | 1019.0 |
| 20260510145044 | 85 | 137 | 14.0 | 19.0 | 0.00 | 0.10 | 0.10 | 72 | 1019.1 |
| 20260510144540 | 84 | 142 | 12.0 | 16.0 | 0.00 | 0.10 | 0.10 | 73 | 1019.0 |
| 20260510144036 | 85 | 129 | 12.0 | 17.0 | 0.00 | 0.10 | 0.10 | 73 | 1019.1 |
| 20260510143531 | 84 | 141 | 13.0 | 15.0 | 0.00 | 0.10 | 0.10 | 74 | 1019.1 |
| 20260510143028 | 84 | 146 | 12.0 | 15.0 | 0.00 | 0.10 | 0.10 | 75 | 1019.1 |
| 20260510142525 | 84 | 133 | 12.0 | 15.0 | 0.00 | 0.10 | 0.10 | 74 | 1019.0 |
| 20260510142022 | 84 | 140 | 13.0 | 16.0 | 0.00 | 0.10 | 0.10 | 75 | 1019.1 |
| 20260510141518 | 83 | 137 | 14.0 | 15.0 | 0.00 | 0.10 | 0.10 | 76 | 1019.0 |
| 20260510141016 | 83 | 137 | 14.0 | 15.0 | 0.00 | 0.10 | 0.10 | 77 | 1018.9 |
| 20260510140511 | 82 | 141 | 12.0 | 14.0 | 0.00 | 0.10 | 0.10 | 77 | 1018.7 |
| 20260510140006 | 82 | 138 | 14.0 | 16.0 | 0.00 | 0.10 | 0.10 | 77 | 1018.7 |
| 20260510135501 | 82 | 148 | 13.0 | 16.0 | 0.00 | 0.10 | 0.10 | 80 | 1018.7 |
| 20260510134958 | 82 | 136 | 15.0 | 18.0 | 0.00 | 0.10 | 0.10 | 80 | 1018.7 |
| 20260510134455 | 81 | 140 | 15.0 | 17.0 | 0.00 | 0.10 | 0.10 | 81 | 1018.7 |
| 20260510133952 | 80 | 147 | 14.0 | 18.0 | 0.00 | 0.10 | 0.10 | 83 | 1018.6 |
| 20260510133448 | 80 | 131 | 15.0 | 17.0 | 0.00 | 0.10 | 0.10 | 83 | 1018.6 |
| 20260510132944 | 80 | 141 | 17.0 | 19.0 | 0.00 | 0.10 | 0.10 | 84 | 1018.7 |
| 20260510132441 | 80 | 145 | 15.0 | 17.0 | 0.00 | 0.10 | 0.10 | 84 | 1018.8 |
| 20260510131938 | 79 | 135 | 15.0 | 17.0 | 0.00 | 0.10 | 0.10 | 85 | 1018.7 |
| 20260510131436 | 78 | 141 | 13.0 | 16.0 | 0.00 | 0.10 | 0.10 | 86 | 1018.5 |
| 20260510130932 | 78 | 136 | 14.0 | 17.0 | 0.00 | 0.10 | 0.10 | 87 | 1018.4 |
| 20260510130429 | 78 | 139 | 13.0 | 17.0 | 0.00 | 0.10 | 0.10 | 87 | 1018.5 |
| 20260510125926 | 78 | 138 | 15.0 | 16.0 | 0.00 | 0.10 | 0.10 | 88 | 1018.5 |
| 20260510125422 | 78 | 134 | 14.0 | 17.0 | 0.00 | 0.10 | 0.10 | 88 | 1018.6 |
| 20260510124919 | 77 | 141 | 14.0 | 16.0 | 0.00 | 0.10 | 0.10 | 90 | 1018.6 |
| 20260510124415 | 76 | 139 | 16.0 | 17.0 | 0.00 | 0.10 | 0.10 | 91 | 1018.5 |
| 20260510123912 | 76 | 138 | 15.0 | 17.0 | 0.00 | 0.10 | 0.10 | 93 | 1018.3 |
| 20260510123407 | 76 | 137 | 14.0 | 16.0 | 0.00 | 0.10 | 0.10 | 93 | 1018.5 |
| 20260510122904 | 75 | 140 | 14.0 | 16.0 | 0.00 | 0.10 | 0.10 | 93 | 1018.4 |
| 20260510122359 | 75 | 133 | 14.0 | 16.0 | 0.00 | 0.10 | 0.10 | 94 | 1018.4 |
| 20260510121856 | 75 | 131 | 13.0 | 14.0 | 0.00 | 0.10 | 0.10 | 94 | 1018.3 |
| 20260510121354 | 75 | 134 | 14.0 | 14.0 | 0.00 | 0.10 | 0.10 | 94 | 1018.4 |
| 20260510120851 | 75 | 139 | 13.0 | 15.0 | 0.00 | 0.10 | 0.10 | 95 | 1018.3 |
| 20260510120348 | 74 | 130 | 14.0 | 15.0 | 0.00 | 0.10 | 0.10 | 96 | 1018.2 |
| 20260510115848 | 74 | 135 | 13.0 | 14.0 | 0.00 | 0.10 | 0.10 | 97 | 1018.0 |
| 20260510115346 | 73 | 137 | 13.0 | 15.0 | 0.00 | 0.10 | 0.10 | 98 | 1017.8 |
| 20260510114841 | 73 | 133 | 14.0 | 15.0 | 0.00 | 0.10 | 0.10 | 98 | 1017.8 |
| 20260510114339 | 73 | 132 | 13.0 | 14.0 | 0.00 | 0.10 | 0.10 | 99 | 1017.8 |
| 20260510113839 | 73 | 137 | 13.0 | 15.0 | 0.00 | 0.10 | 0.10 | 99 | 1017.5 |
| 20260510113336 | 73 | 133 | 13.0 | 15.0 | 0.00 | 0.10 | 0.10 | 99 | 1017.6 |
| 20260510112832 | 73 | 133 | 12.0 | 14.0 | 0.00 | 0.10 | 0.10 | 99 | 1017.6 |
| 20260510112329 | 72 | 129 | 12.0 | 13.0 | 0.00 | 0.10 | 0.10 | 98 | 1017.4 |
| 20260510111825 | 72 | 137 | 13.0 | 14.0 | 0.00 | 0.10 | 0.10 | 98 | 1017.4 |
| 20260510111323 | 72 | 133 | 13.0 | 14.0 | 0.00 | 0.10 | 0.10 | 98 | 1017.4 |
| 20260510110822 | 72 | 136 | 12.0 | 15.0 | 0.00 | 0.10 | 0.10 | 98 | 1017.4 |
| 20260510110320 | 72 | 129 | 13.0 | 13.0 | 0.00 | 0.10 | 0.10 | 98 | 1017.2 |
| 20260510105816 | 72 | 129 | 12.0 | 13.0 | 0.00 | 0.10 | 0.10 | 98 | 1017.3 |
| 20260510105316 | 72 | 132 | 13.0 | 13.0 | 0.00 | 0.10 | 0.10 | 98 | 1017.0 |
| 20260510104812 | 72 | 130 | 12.0 | 13.0 | 0.00 | 0.10 | 0.10 | 98 | 1016.9 |
| 20260510104310 | 72 | 128 | 12.0 | 13.0 | 0.00 | 0.10 | 0.10 | 98 | 1016.9 |
| 20260510103806 | 72 | 133 | 12.0 | 14.0 | 0.00 | 0.10 | 0.10 | 98 | 1016.7 |
| 20260510103303 | 72 | 135 | 14.0 | 15.0 | 0.00 | 0.10 | 0.10 | 98 | 1016.6 |
| 20260510102803 | 72 | 130 | 14.0 | 15.0 | 0.00 | 0.10 | 0.10 | 98 | 1016.5 |
| 20260510102259 | 72 | 135 | 12.0 | 15.0 | 0.00 | 0.10 | 0.10 | 98 | 1016.5 |
| 20260510101757 | 72 | 133 | 13.0 | 14.0 | 0.00 | 0.10 | 0.10 | 98 | 1016.4 |
| 20260510101255 | 72 | 126 | 13.0 | 14.0 | 0.00 | 0.10 | 0.10 | 98 | 1016.3 |
| 20260510100751 | 72 | 130 | 14.0 | 16.0 | 0.00 | 0.10 | 0.10 | 98 | 1016.3 |
| 20260510100249 | 72 | 133 | 13.0 | 15.0 | 0.00 | 0.10 | 0.10 | 98 | 1016.1 |
| 20260510095750 | 72 | 134 | 13.0 | 15.0 | 0.00 | 0.10 | 0.10 | 97 | 1016.3 |
| 20260510095245 | 72 | 133 | 12.0 | 15.0 | 0.00 | 0.10 | 0.10 | 97 | 1016.3 |
| 20260510094744 | 72 | 130 | 13.0 | 14.0 | 0.00 | 0.10 | 0.10 | 97 | 1016.1 |
| 20260510094240 | 73 | 135 | 13.0 | 14.0 | 0.00 | 0.10 | 0.10 | 97 | 1016.1 |
| 20260510093736 | 73 | 132 | 13.0 | 17.0 | 0.00 | 0.10 | 0.10 | 97 | 1016.1 |
| 20260510093233 | 73 | 145 | 12.0 | 14.0 | 0.00 | 0.10 | 0.10 | 97 | 1015.9 |
| 20260510092729 | 73 | 136 | 11.0 | 14.0 | 0.00 | 0.10 | 0.10 | 97 | 1015.8 |
| 20260510092225 | 73 | 138 | 13.0 | 15.0 | 0.00 | 0.10 | 0.10 | 97 | 1016.0 |
| 20260510091721 | 73 | 136 | 13.0 | 13.0 | 0.00 | 0.10 | 0.10 | 97 | 1015.9 |
| 20260510091218 | 73 | 132 | 12.0 | 14.0 | 0.00 | 0.10 | 0.10 | 97 | 1015.8 |
| 20260510090714 | 73 | 129 | 14.0 | 15.0 | 0.00 | 0.10 | 0.10 | 97 | 1015.7 |
| 20260510090212 | 73 | 133 | 13.0 | 16.0 | 0.00 | 0.10 | 0.10 | 97 | 1015.6 |
| 20260510085706 | 73 | 133 | 14.0 | 15.0 | 0.00 | 0.10 | 0.10 | 97 | 1015.7 |
| 20260510085202 | 73 | 138 | 13.0 | 15.0 | 0.00 | 0.10 | 0.10 | 97 | 1015.7 |
| 20260510084658 | 73 | 132 | 15.0 | 16.0 | 0.00 | 0.10 | 0.10 | 97 | 1015.4 |
| 20260510084155 | 73 | 134 | 14.0 | 15.0 | 0.00 | 0.10 | 0.10 | 97 | 1015.7 |
| 20260510083652 | 73 | 133 | 12.0 | 14.0 | 0.00 | 0.10 | 0.10 | 97 | 1015.6 |
| 20260510083149 | 73 | 136 | 14.0 | 15.0 | 0.00 | 0.10 | 0.10 | 97 | 1015.7 |
| 20260510082644 | 73 | 137 | 14.0 | 15.0 | 0.00 | 0.10 | 0.10 | 97 | 1015.5 |
| 20260510082140 | 73 | 140 | 13.0 | 15.0 | 0.00 | 0.10 | 0.10 | 98 | 1015.6 |
| 20260510081635 | 73 | 137 | 14.0 | 15.0 | 0.00 | 0.10 | 0.10 | 98 | 1015.5 |
| 20260510081131 | 73 | 135 | 14.0 | 14.0 | 0.00 | 0.10 | 0.10 | 98 | 1015.7 |
| 20260510080631 | 73 | 131 | 13.0 | 14.0 | 0.00 | 0.10 | 0.10 | 98 | 1015.7 |
| 20260510080128 | 73 | 135 | 14.0 | 14.0 | 0.00 | 0.10 | 0.10 | 98 | 1015.7 |
| 20260510075625 | 73 | 135 | 13.0 | 14.0 | 0.00 | 0.10 | 0.10 | 98 | 1015.8 |
| 20260510075122 | 73 | 137 | 13.0 | 14.0 | 0.00 | 0.10 | 0.10 | 98 | 1015.8 |
| 20260510074619 | 73 | 136 | 14.0 | 14.0 | 0.00 | 0.10 | 0.10 | 98 | 1015.5 |
| 20260510074115 | 73 | 131 | 12.0 | 14.0 | 0.00 | 0.10 | 0.10 | 98 | 1015.7 |
| 20260510073611 | 74 | 133 | 13.0 | 14.0 | 0.00 | 0.10 | 0.10 | 98 | 1015.8 |
| 20260510073108 | 74 | 133 | 13.0 | 14.0 | 0.00 | 0.10 | 0.10 | 98 | 1015.5 |
| 20260510072559 | 74 | 133 | 13.0 | 14.0 | 0.00 | 0.10 | 0.10 | 97 | 1015.8 |
| 20260510072055 | 74 | 130 | 12.0 | 13.0 | 0.00 | 0.10 | 0.10 | 97 | 1016.0 |
| 20260510071551 | 74 | 132 | 12.0 | 13.0 | 0.00 | 0.10 | 0.10 | 97 | 1016.0 |
| 20260510071049 | 74 | 130 | 12.0 | 13.0 | 0.00 | 0.10 | 0.10 | 97 | 1016.1 |
| 20260510070546 | 74 | 131 | 12.0 | 12.0 | 0.00 | 0.10 | 0.10 | 97 | 1016.0 |
| 20260510070043 | 74 | 133 | 12.0 | 13.0 | 0.00 | 0.10 | 0.10 | 97 | 1016.2 |
| 20260510065539 | 74 | 135 | 12.0 | 13.0 | 0.00 | 0.10 | 0.10 | 97 | 1016.1 |
| 20260510065035 | 74 | 135 | 13.0 | 14.0 | 0.00 | 0.10 | 0.10 | 97 | 1016.1 |
| 20260510064532 | 74 | 133 | 12.0 | 13.0 | 0.00 | 0.10 | 0.10 | 96 | 1016.0 |
| 20260510064029 | 75 | 130 | 13.0 | 13.0 | 0.00 | 0.10 | 0.10 | 96 | 1016.1 |
| 20260510063526 | 74 | 133 | 13.0 | 13.0 | 0.00 | 0.10 | 0.10 | 96 | 1016.1 |
| 20260510063023 | 74 | 131 | 12.0 | 13.0 | 0.02 | 0.10 | 0.10 | 96 | 1016.4 |
| 20260510062519 | 75 | 133 | 12.0 | 13.0 | 0.02 | 0.10 | 0.10 | 95 | 1016.5 |
| 20260510062014 | 75 | 131 | 12.0 | 13.0 | 0.00 | 0.10 | 0.10 | 95 | 1016.4 |
| 20260510061511 | 75 | 132 | 13.0 | 13.0 | 0.17 | 0.10 | 0.10 | 94 | 1016.4 |
| 20260510061007 | 75 | 131 | 13.0 | 13.0 | 0.57 | 0.10 | 0.10 | 93 | 1016.5 |
| 20260510060504 | 75 | 135 | 13.0 | 14.0 | 0.40 | 0.07 | 0.07 | 92 | 1016.8 |
| 20260510060000 | 75 | 129 | 11.0 | 12.0 | 0.00 | 0.00 | 0.00 | 91 | 1016.8 |
| 20260510055456 | 76 | 134 | 12.0 | 13.0 | 0.00 | 0.00 | 0.00 | 90 | 1017.0 |
| 20260510054954 | 76 | 131 | 12.0 | 13.0 | 0.00 | 0.00 | 0.00 | 89 | 1017.0 |
| 20260510054449 | 77 | 133 | 12.0 | 13.0 | 0.02 | 0.00 | 0.00 | 87 | 1016.8 |
| 20260510053945 | 77 | 129 | 12.0 | 13.0 | 0.00 | 0.00 | 0.00 | 86 | 1017.0 |
| 20260510053440 | 77 | 134 | 13.0 | 14.0 | 0.00 | 0.00 | 0.00 | 85 | 1017.0 |
| 20260510052937 | 77 | 130 | 12.0 | 14.0 | 0.00 | 0.00 | 0.00 | 83 | 1017.1 |
| 20260510052432 | 78 | 134 | 12.0 | 18.0 | 0.00 | 0.00 | 0.00 | 83 | 1017.0 |
| 20260510051929 | 78 | 131 | 15.0 | 15.0 | 0.00 | 0.00 | 0.00 | 82 | 1017.2 |
| 20260510051425 | 78 | 133 | 12.0 | 14.0 | 0.00 | 0.00 | 0.00 | 82 | 1017.1 |
| 20260510050922 | 78 | 131 | 12.0 | 13.0 | 0.00 | 0.00 | 0.00 | 82 | 1017.1 |
| 20260510050418 | 78 | 134 | 13.0 | 15.0 | 0.00 | 0.00 | 0.00 | 81 | 1017.4 |
| 20260510045916 | 78 | 130 | 12.0 | 13.0 | 0.00 | 0.00 | 0.00 | 82 | 1017.4 |
| 20260510045413 | 78 | 132 | 14.0 | 15.0 | 0.00 | 0.00 | 0.00 | 82 | 1017.4 |
| 20260510044910 | 78 | 130 | 12.0 | 14.0 | 0.00 | 0.00 | 0.00 | 82 | 1017.1 |
| 20260510044407 | 78 | 132 | 13.0 | 14.0 | 0.00 | 0.00 | 0.00 | 82 | 1017.2 |
| 20260510043903 | 78 | 131 | 13.0 | 14.0 | 0.00 | 0.00 | 0.00 | 82 | 1017.2 |
| 20260510043359 | 78 | 132 | 13.0 | 14.0 | 0.00 | 0.00 | 0.00 | 83 | 1017.2 |
| 20260510042857 | 78 | 133 | 13.0 | 13.0 | 0.00 | 0.00 | 0.00 | 83 | 1017.4 |
| 20260510042353 | 78 | 131 | 12.0 | 13.0 | 0.00 | 0.00 | 0.00 | 83 | 1017.4 |
| 20260510041849 | 78 | 132 | 12.0 | 13.0 | 0.00 | 0.00 | 0.00 | 83 | 1017.3 |
| 20260510041347 | 78 | 128 | 12.0 | 13.0 | 0.00 | 0.00 | 0.00 | 84 | 1017.5 |
| 20260510040844 | 78 | 133 | 12.0 | 12.0 | 0.00 | 0.00 | 0.00 | 83 | 1017.3 |
| 20260510040341 | 78 | 131 | 12.0 | 12.0 | 0.00 | 0.00 | 0.00 | 83 | 1017.2 |
| 20260510035836 | 78 | 132 | 13.0 | 13.0 | 0.00 | 0.00 | 0.00 | 82 | 1017.2 |
| 20260510035332 | 78 | 131 | 13.0 | 14.0 | 0.00 | 0.00 | 0.00 | 82 | 1017.1 |
| 20260510034828 | 78 | 135 | 13.0 | 15.0 | 0.00 | 0.00 | 0.00 | 82 | 1017.1 |
| 20260510034326 | 78 | 131 | 14.0 | 15.0 | 0.00 | 0.00 | 0.00 | 82 | 1017.0 |
| 20260510033822 | 78 | 133 | 13.0 | 15.0 | 0.00 | 0.00 | 0.00 | 82 | 1017.0 |
| 20260510033319 | 78 | 132 | 13.0 | 14.0 | 0.00 | 0.00 | 0.00 | 81 | 1017.0 |
| 20260510032815 | 78 | 135 | 14.0 | 14.0 | 0.00 | 0.00 | 0.00 | 81 | 1017.1 |
| 20260510032312 | 78 | 130 | 14.0 | 15.0 | 0.00 | 0.00 | 0.00 | 81 | 1017.1 |
| 20260510031807 | 79 | 132 | 13.0 | 13.0 | 0.00 | 0.00 | 0.00 | 81 | 1017.1 |
| 20260510031303 | 79 | 134 | 14.0 | 15.0 | 0.00 | 0.00 | 0.00 | 81 | 1017.1 |
| 20260510030802 | 79 | 132 | 12.0 | 14.0 | 0.00 | 0.00 | 0.00 | 81 | 1017.0 |
| 20260510030259 | 79 | 136 | 13.0 | 14.0 | 0.00 | 0.00 | 0.00 | 81 | 1017.0 |
| 20260510025758 | 79 | 131 | 13.0 | 14.0 | 0.00 | 0.00 | 0.00 | 81 | 1016.8 |
| 20260510025255 | 79 | 133 | 13.0 | 13.0 | 0.00 | 0.00 | 0.00 | 82 | 1017.0 |
| 20260510024751 | 79 | 136 | 13.0 | 14.0 | 0.00 | 0.00 | 0.00 | 81 | 1017.1 |
| 20260510024248 | 79 | 133 | 12.0 | 13.0 | 0.00 | 0.00 | 0.00 | 81 | 1017.0 |
| 20260510023744 | 79 | 131 | 12.0 | 13.0 | 0.00 | 0.00 | 0.00 | 81 | 1017.1 |
| 20260510023241 | 79 | 129 | 12.0 | 13.0 | 0.00 | 0.00 | 0.00 | 80 | 1017.0 |
| 20260510022737 | 79 | 123 | 11.0 | 12.0 | 0.00 | 0.00 | 0.00 | 80 | 1016.8 |
| 20260510022237 | 80 | 124 | 11.0 | 12.0 | 0.00 | 0.00 | 0.00 | 80 | 1017.1 |
| 20260510021732 | 80 | 120 | 10.0 | 13.0 | 0.00 | 0.00 | 0.00 | 79 | 1016.8 |
| 20260510021230 | 80 | 125 | 11.0 | 11.0 | 0.00 | 0.00 | 0.00 | 79 | 1016.9 |
| 20260510020730 | 80 | 129 | 11.0 | 13.0 | 0.00 | 0.00 | 0.00 | 79 | 1016.8 |
| 20260510020225 | 80 | 123 | 11.0 | 12.0 | 0.00 | 0.00 | 0.00 | 78 | 1016.9 |
| 20260510015721 | 80 | 128 | 12.0 | 13.0 | 0.00 | 0.00 | 0.00 | 78 | 1016.6 |
| 20260510015213 | 80 | 129 | 11.0 | 14.0 | 0.00 | 0.00 | 0.00 | 78 | 1016.6 |
| 20260510014708 | 80 | 131 | 11.0 | 12.0 | 0.00 | 0.00 | 0.00 | 78 | 1016.7 |
| 20260510014206 | 80 | 115 | 10.0 | 12.0 | 0.00 | 0.00 | 0.00 | 78 | 1016.4 |
| 20260510013705 | 80 | 124 | 11.0 | 14.0 | 0.00 | 0.00 | 0.00 | 77 | 1016.3 |
| 20260510013156 | 80 | 132 | 11.0 | 13.0 | 0.00 | 0.00 | 0.00 | 77 | 1016.3 |
| 20260510012655 | 80 | 132 | 11.0 | 11.0 | 0.00 | 0.00 | 0.00 | 77 | 1016.0 |
| 20260510012151 | 81 | 130 | 11.0 | 12.0 | 0.00 | 0.00 | 0.00 | 77 | 1016.0 |
| 20260510011646 | 81 | 125 | 11.0 | 13.0 | 0.00 | 0.00 | 0.00 | 77 | 1016.2 |
| 20260510011142 | 81 | 124 | 10.0 | 12.0 | 0.00 | 0.00 | 0.00 | 76 | 1016.1 |
| 20260510010638 | 81 | 136 | 13.0 | 13.0 | 0.00 | 0.00 | 0.00 | 75 | 1015.8 |
| 20260510010136 | 81 | 134 | 11.0 | 12.0 | 0.00 | 0.00 | 0.00 | 75 | 1016.0 |
| 20260510005631 | 81 | 127 | 11.0 | 13.0 | 0.00 | 0.00 | 0.00 | 74 | 1015.9 |
| 20260510005128 | 82 | 132 | 11.0 | 13.0 | 0.00 | 0.00 | 0.00 | 73 | 1015.9 |
| 20260510004627 | 82 | 133 | 11.0 | 14.0 | 0.00 | 0.00 | 0.00 | 72 | 1015.6 |
| 20260510004125 | 82 | 129 | 11.0 | 13.0 | 0.00 | 0.00 | 0.00 | 70 | 1015.6 |
| 20260510003622 | 82 | 131 | 9.0 | 12.0 | 0.00 | 0.00 | 0.00 | 69 | 1015.5 |
| 20260510003118 | 82 | 128 | 10.0 | 12.0 | 0.00 | 0.00 | 0.00 | 68 | 1015.5 |
| 20260510002618 | 83 | 130 | 11.0 | 12.0 | 0.00 | 0.00 | 0.00 | 67 | 1015.5 |
| 20260510002115 | 83 | 123 | 10.0 | 13.0 | 0.00 | 0.00 | 0.00 | 67 | 1015.4 |
| 20260510001612 | 83 | 132 | 11.0 | 12.0 | 0.00 | 0.00 | 0.00 | 66 | 1015.2 |
| 20260510001111 | 83 | 140 | 12.0 | 13.0 | 0.00 | 0.00 | 0.00 | 65 | 1015.3 |
| 20260510000611 | 83 | 121 | 10.0 | 14.0 | 0.00 | 0.00 | 0.00 | 65 | 1015.2 |
| 20260510000108 | 84 | 125 | 10.0 | 11.0 | 0.00 | 0.00 | 0.00 | 64 | 1015.2 |
| 20260509235604 | 84 | 132 | 11.0 | 14.0 | 0.00 | 0.00 | 0.00 | 63 | 1015.0 |
| 20260509235101 | 84 | 133 | 12.0 | 13.0 | 0.00 | 0.00 | 0.00 | 62 | 1015.1 |
| 20260509234557 | 84 | 130 | 11.0 | 12.0 | 0.00 | 0.00 | 0.00 | 61 | 1014.8 |
| 20260509234055 | 85 | 125 | 10.0 | 12.0 | 0.00 | 0.00 | 0.00 | 59 | 1014.9 |
| 20260509233552 | 85 | 123 | 9.0 | 12.0 | 0.00 | 0.00 | 0.00 | 58 | 1014.9 |
| 20260509233050 | 86 | 129 | 11.0 | 13.0 | 0.00 | 0.00 | 0.00 | 56 | 1014.8 |
| 20260509232546 | 86 | 126 | 9.0 | 12.0 | 0.00 | 0.00 | 0.00 | 56 | 1014.7 |
| 20260509232043 | 86 | 144 | 13.0 | 14.0 | 0.00 | 0.00 | 0.00 | 55 | 1014.6 |
| 20260509231539 | 87 | 131 | 11.0 | 14.0 | 0.00 | 0.00 | 0.00 | 56 | 1014.6 |
| 20260509231037 | 87 | 130 | 9.0 | 13.0 | 0.00 | 0.00 | 0.00 | 55 | 1014.5 |
| 20260509230533 | 87 | 136 | 11.0 | 13.0 | 0.00 | 0.00 | 0.00 | 56 | 1014.7 |
| 20260509230031 | 87 | 128 | 10.0 | 12.0 | 0.00 | 0.00 | 0.00 | 55 | 1014.5 |
| 20260509225526 | 87 | 126 | 11.0 | 13.0 | 0.00 | 0.00 | 0.00 | 54 | 1014.5 |
| 20260509225022 | 87 | 137 | 13.0 | 13.0 | 0.00 | 0.00 | 0.00 | 54 | 1014.5 |
| 20260509224518 | 88 | 136 | 11.0 | 14.0 | 0.00 | 0.00 | 0.00 | 53 | 1014.6 |
| 20260509224014 | 88 | 132 | 12.0 | 14.0 | 0.00 | 0.00 | 0.00 | 52 | 1014.4 |
| 20260509223511 | 88 | 145 | 13.0 | 14.0 | 0.00 | 0.00 | 0.00 | 51 | 1014.4 |
| 20260509223010 | 88 | 123 | 8.0 | 15.0 | 0.00 | 0.00 | 0.00 | 50 | 1014.3 |
| 20260509222505 | 89 | 134 | 10.0 | 13.0 | 0.00 | 0.00 | 0.00 | 50 | 1014.3 |
| 20260509222001 | 90 | 131 | 11.0 | 14.0 | 0.00 | 0.00 | 0.00 | 49 | 1014.2 |
| 20260509221457 | 91 | 132 | 11.0 | 12.0 | 0.00 | 0.00 | 0.00 | 48 | 1014.4 |
| 20260509220952 | 90 | 140 | 13.0 | 14.0 | 0.00 | 0.00 | 0.00 | 49 | 1014.1 |
| 20260509220444 | 90 | 142 | 12.0 | 14.0 | 0.00 | 0.00 | 0.00 | 49 | 1014.1 |
| 20260509215939 | 91 | 131 | 10.0 | 15.0 | 0.00 | 0.00 | 0.00 | 48 | 1014.1 |
| 20260509215435 | 92 | 134 | 10.0 | 13.0 | 0.00 | 0.00 | 0.00 | 47 | 1014.1 |
| 20260509214933 | 92 | 140 | 11.0 | 15.0 | 0.00 | 0.00 | 0.00 | 49 | 1014.1 |
| 20260509214430 | 92 | 127 | 11.0 | 14.0 | 0.00 | 0.00 | 0.00 | 48 | 1014.0 |
| 20260509213927 | 92 | 133 | 9.0 | 13.0 | 0.00 | 0.00 | 0.00 | 49 | 1013.9 |
| 20260509213422 | 93 | 138 | 11.0 | 15.0 | 0.00 | 0.00 | 0.00 | 48 | 1013.8 |
| 20260509212921 | 91 | 123 | 9.0 | 14.0 | 0.00 | 0.00 | 0.00 | 49 | 1013.9 |
| 20260509212418 | 91 | 140 | 12.0 | 15.0 | 0.00 | 0.00 | 0.00 | 50 | 1013.8 |
| 20260509211914 | 92 | 132 | 11.0 | 14.0 | 0.00 | 0.00 | 0.00 | 48 | 1013.9 |
| 20260509211410 | 92 | 145 | 13.0 | 15.0 | 0.00 | 0.00 | 0.00 | 48 | 1013.9 |
| 20260509210906 | 91 | 144 | 10.0 | 15.0 | 0.00 | 0.00 | 0.00 | 48 | 1013.7 |
| 20260509210403 | 92 | 150 | 14.0 | 15.0 | 0.00 | 0.00 | 0.00 | 47 | 1013.7 |
| 20260509205904 | 93 | 138 | 12.0 | 13.0 | 0.00 | 0.00 | 0.00 | 47 | 1013.6 |
| 20260509205403 | 92 | 140 | 11.0 | 14.0 | 0.00 | 0.00 | 0.00 | 47 | 1013.6 |
| 20260509204900 | 92 | 151 | 13.0 | 15.0 | 0.00 | 0.00 | 0.00 | 48 | 1013.7 |